Regional Weather Roundup
Issued by NWS Charleston, SC

Current Version | Previous Version | Text Only | Print | Product List | Glossary Off
Versions: 1 2 3 4 5 6 7 8 9 10 11 12 13 14 15 16 17 18 19 20 21 22 23 24 25 26 27 28 29 30 31 32 33 34 35 36 37 38 39 40 41 42 43 44 45 46 47 48 49 50
000 ASUS42 KCHS 272113 RWRCHS REGIONAL WEATHER ROUNDUP NATIONAL WEATHER SERVICE CHARLESTON SC 500 PM EDT SAT AUG 27 2016 NOTE: "FAIR" INDICATES FEW OR NO CLOUDS BELOW 12,000 FEET WITH NO SIGNIFICANT WEATHER AND/OR OBSTRUCTIONS TO VISIBILITY. NOT ALL STATIONS ARE QUALITY CONTROLLED. USE DATA WITH CAUTION... ESPECIALLY DEWPOINT OBSERVATIONS. SCZ027-030-031-034>040-042>050-272200- ...SOUTHEAST SOUTH CAROLINA... CITY SKY/WX TMP DP RH WIND PRES REMARKS N CHARLESTON MOSUNNY 91 70 49 SE10 30.05F HX 96 WATERFRONT PRK N/A 87 75 67 E8 30.05F HX 96 MOUNT PLEASANT FAIR 88 73 62 NE5 30.06F HX 96 JOHNS ISLAND FAIR 86 73 66 E13 30.06S HX 93 PINOPOLIS N/A 90 72 55 VRB3 29.98F HX 96 MONCKS CORNER FAIR 90 66 45 E9 30.05S HX 92 SUMMERVILLE NOT AVBL BEAUFORT MCAS SUNNY 90 70 51 E10 30.04F HX 95 BEAUFORT ARPT FAIR 86 73 66 E9 30.04F HX 93 HILTON HEAD IS MOSUNNY 91 75 59 NE9 30.05F HX 102 WALTERBORO CLEAR 93 66 40 E8 30.05F HX 96 ALLENDALE FAIR 93 64 38 NE8G15 30.02F HX 95 ...SOUTHERN MIDLANDS AND PEE DEE... CITY SKY/WX TMP DP RH WIND PRES REMARKS GEORGETOWN FAIR 86 70 58 SE10 30.08S HX 90 KINGSTREE FAIR 91 64 40 E9 30.05S HX 93 ORANGEBURG SUNNY 93 68 43 SE13G18 30.05F HX 97 BARNWELL NOT AVBL AIKEN FAIR 95 64 36 E12G23 30.08F HX 97 MANNING FAIR 91 68 46 SE10 30.05S HX 95 COLUMBIA MOSUNNY 96 69 41 SE13 30.03F HX 102 SUMTER MOSUNNY 95 69 42 S9 30.02F HX 100 FLORENCE PTSUNNY 97 70 41 SE10 30.04F HX 103 MYRTLE BEACH MOSUNNY 88 70 55 SE12 30.08R HX 92 N MYRTLE BEACH SUNNY 86 75 69 SE10 30.06S HX 95 $$ GAZ063-065-086>088-099>101-113>116-118-119-134>141-150-272200- ...SOUTHEAST GEORGIA... CITY SKY/WX TMP DP RH WIND PRES REMARKS SAVANNAH ARPT MOSUNNY 90 69 50 E10 30.03F HX 94 HUNTER AAF SUNNY 88 78 73 E14G20 30.01F HX 101 FORT STEWART MOSUNNY 88 71 57 E10 30.00S HX 94 STATESBORO SUNNY 96 64 35 E7 30.03F HX 98 SYLVANIA NOT AVBL CLAXTON FAIR 92 69 47 NE10G16 30.02S HX 96 ...CSRA...CENTRAL AND FAR SOUTHEAST GEORGIA... CITY SKY/WX TMP DP RH WIND PRES REMARKS THOMSON SUNNY 96 70 42 MISG 30.08F HX 102 AUGUSTA-BUSH MOSUNNY 96 66 37 E13 30.02F HX 99 AUGUSTA-DANIEL SUNNY 97 66 36 E14G23 30.04F HX 100 SWAINSBORO FAIR 95 59 30 E13G18 30.03F HX 94 VIDALIA MOSUNNY 93 72 49 SE7 30.02F HX 100 EASTMAN FAIR 97 26 8 E8G17 30.02F HX 91 HAZLEHURST FAIR 94 66 39 CALM 30.00F HX 97 ALMA MOSUNNY 89 70 53 E6 30.00F HX 94 WAYCROSS N/A 95 77 55 E17 29.99F HX 109 JESUP FAIR 90 77 66 E13G23 30.02R HX 102 BAXLEY FAIR 93 73 52 SE8 30.00F HX 102 BRUNSWICK CLOUDY 84 77 79 E16 30.03R HX 94 SAINT SIMONS CLOUDY 83 79 88 E8 30.01F HX 94 $$ SCZ027-028-034-036>038-045-046-048>050-GAZ119-141-272200- ...LAKE AND SUPPLEMENTAL COASTAL OBSERVATIONS... STATION/POSITION TIME TEMP WIND PRES WAVE SWELL AIR SEA DIR/SP/G HT/PER HT/PER/DIR (UTC) (F) (DEG/KT/KT) (MB) (FT/S) (FT/S/D) WINYAH BAY NOT AVBL LAKE MURRAY 2000 93 130/ 4/ 10 1016.9F ACE BASIN NERRS NOT AVBL FORT PULASKI 2000 84 86 60/ 16/ 19 1017.8F SAPELO ISLAND 2000 89 60/ 13 1017.0S $$ ANZ835-935-AMZ111-154-330-350-352-354-370-450-454-472-272200- ...C-MAN AND BUOY OBSERVATIONS... STATION/POSITION TIME TEMP WIND PRES WAVE SWELL AIR SEA DIR/SP/G HT/PER HT/PER/DIR (UTC) (F) (DEG/KT/KT) (MB) (FT/S) (FT/S/D) BUOY 41004 2050 84 85 70/ 12/ 16 1016.9F 4/10 3/110/10 BUOY 41008 2050 84 85 90/ 14/ 17 1016.0F 5/ 5 3/ 90/ 8 FOLLY BEACH CMAN 2100 83 70/ 12/ 15 1018.3F CAPERS NEARSHORE 2008 83 85 70/ 10/ 14 1017.9F FRIPP NEARSHORE 2008 84 86 70/ 14/ 17 1016.8F STATION/POSITION TIME TEMP WIND PRES WAVE SWELL AIR SEA DIR/SP/G HT/PER HT/PER/DIR (UTC) (F) (DEG/KT/KT) (MB) (FT/S) (FT/S/D) 5E ST. MARYS GA 2001 85 N/A 6/10 2/110/11 FRYING PAN BUOY 2000 83 85 60/ 10/ 14 1017.8F BUOY 41025 2050 83 85 50/ 6/ 8 1018.5 3/ 8 3/110/ 8 CAPE LOOKOUT NC 2100 83 100/ 10/ 11 1017.8F BUOY 41002 2050 83 84 60/ 16/ 17 1016.0S 5/ 8 3/110/ 8 BUOY 41010 NOT AVBL ST AUGUSTINE FL 2100 83 85 100/ 10/ 10 1015.7F $$

USA.gov is the U.S. government's official web portal to all federal, state and local government web resources and services.